EI8EPB-1 Weather Reports


time (UTC)temp
F
wind
direction
speed
knots
gust
knots
rain 1hr
in
rain 24hr
in
rain mn
in
humidity
%
barometer
mb
20260508123003 62 266 0.0 2.6 0.00 0.00 0.00 63 1014.0
20260508122503 61 268 0.0 0.9 0.00 0.00 0.00 63 1014.0
20260508122003 61 278 0.0 0.9 0.00 0.00 0.00 65 1014.0
20260508121503 61 262 0.0 1.7 0.00 0.00 0.00 64 1014.0
20260508121003 61 260 0.0 1.7 0.00 0.00 0.00 64 1014.0
20260508120503 61 220 0.0 0.9 0.00 0.00 0.00 65 1014.0
20260508120004 60 257 0.0 1.7 0.00 0.00 0.00 65 1014.0
20260508115503 60 291 0.0 1.7 0.00 0.00 0.00 65 1014.0
20260508115003 60 311 0.0 1.7 0.00 0.00 0.00 65 1014.0
20260508114503 61 312 0.0 0.9 0.00 0.00 0.00 64 1014.0
20260508114003 61 208 0.0 2.6 0.00 0.00 0.00 63 1013.9
20260508113503 62 172 0.0 2.6 0.00 0.00 0.00 62 1013.9
20260508113004 61 177 0.0 1.7 0.00 0.00 0.00 62 1013.9
20260508112503 61 269 0.0 1.7 0.00 0.00 0.00 65 1013.9
20260508112003 61 250 0.0 1.7 0.00 0.00 0.00 65 1014.0
20260508111503 61 247 0.0 1.7 0.00 0.00 0.00 66 1013.9
20260508111003 60 262 0.0 0.9 0.00 0.00 0.00 66 1013.9
20260508110503 60 294 0.0 1.7 0.00 0.00 0.00 67 1014.0
20260508110004 60 279 0.0 1.7 0.00 0.00 0.00 67 1013.9
20260508105503 60 287 0.9 2.6 0.00 0.00 0.00 63 1013.9
20260508105003 61 292 0.0 2.6 0.00 0.00 0.00 64 1013.9
20260508104503 61 272 0.0 1.7 0.00 0.00 0.00 67 1013.9
20260508104003 61 290 0.0 1.7 0.00 0.00 0.00 67 1014.0
20260508103503 61 265 0.0 1.7 0.00 0.00 0.00 67 1013.9
20260508103003 61 227 0.0 0.9 0.00 0.00 0.00 70 1013.9
20260508102503 60 222 0.0 1.7 0.00 0.00 0.00 73 1014.0
20260508102003 58 227 0.0 1.7 0.00 0.00 0.00 74 1014.0
20260508101503 58 7 0.0 0.9 0.00 0.00 0.00 74 1013.9
20260508101003 58 351 0.0 0.9 0.00 0.00 0.00 74 1013.9
20260508100503 58 251 0.0 0.9 0.00 0.00 0.00 76 1013.8
20260508100003 57 248 0.0 0.9 0.00 0.00 0.00 78 1013.9
20260508095503 57 279 0.0 0.9 0.00 0.00 0.00 78 1014.0
20260508095003 56 275 0.0 0.9 0.00 0.00 0.00 79 1014.0
20260508094503 56 279 0.0 1.7 0.00 0.00 0.00 78 1013.9
20260508094003 57 296 0.0 1.7 0.00 0.00 0.00 78 1014.0
20260508093503 57 303 0.0 0.9 0.00 0.00 0.00 77 1013.9
20260508093003 57 270 0.0 0.9 0.00 0.00 0.00 78 1013.9
20260508092503 57 187 0.0 2.6 0.00 0.00 0.00 78 1013.9
20260508092003 57 171 0.0 2.6 0.00 0.00 0.00 80 1013.9
20260508091503 56 196 0.0 1.7 0.00 0.00 0.00 82 1013.9
20260508091003 55 198 0.0 0.9 0.00 0.00 0.00 83 1013.9
20260508090503 54 193 0.0 0.9 0.00 0.00 0.00 85 1014.0
20260508090003 54 0 0.0 0.0 0.00 0.00 0.00 87 1014.0
20260508085503 53 0 0.0 0.0 0.00 0.00 0.00 89 1013.8
20260508085003 52 234 0.0 0.9 0.00 0.00 0.00 90 1013.9
20260508084503 51 242 0.0 0.9 0.00 0.00 0.00 92 1013.9
20260508084003 50 290 0.0 0.9 0.00 0.00 0.00 93 1013.9
20260508083503 50 285 0.0 0.9 0.00 0.00 0.00 93 1013.8
20260508083003 49 279 0.0 0.9 0.00 0.00 0.00 94 1013.8
20260508082503 49 272 0.0 0.9 0.00 0.00 0.00 95 1013.9
20260508082003 48 0 0.0 0.0 0.00 0.00 0.00 95 1013.9
20260508081504 48 272 0.0 0.9 0.00 0.00 0.00 96 1013.8
20260508081003 48 273 0.0 0.9 0.00 0.00 0.00 96 1013.8
20260508080503 47 272 0.0 0.9 0.00 0.00 0.00 96 1013.8
20260508080003 47 269 0.0 0.9 0.00 0.00 0.00 97 1013.8
20260508075503 46 266 0.0 0.9 0.00 0.00 0.00 97 1013.7
20260508075003 46 266 0.0 0.9 0.00 0.00 0.00 97 1013.7
20260508074503 46 265 0.0 0.9 0.00 0.00 0.00 97 1013.7
20260508074003 46 264 0.0 0.9 0.00 0.00 0.00 97 1013.7
20260508073503 45 0 0.0 0.0 0.00 0.00 0.00 98 1013.5
20260508073003 45 0 0.0 0.0 0.00 0.00 0.00 98 1013.5
20260508072503 44 222 0.0 0.9 0.00 0.00 0.00 98 1013.5
20260508072003 44 222 0.0 0.9 0.00 0.00 0.00 98 1013.4
20260508071503 44 0 0.0 0.0 0.00 0.00 0.00 98 1013.3
20260508071003 43 0 0.0 0.0 0.00 0.00 0.00 98 1013.4
20260508070503 43 0 0.0 0.0 0.00 0.00 0.00 98 1013.3
20260508070003 42 0 0.0 0.0 0.00 0.00 0.00 97 1013.3
20260508065503 42 0 0.0 0.0 0.00 0.00 0.00 97 1013.4
20260508065003 41 0 0.0 0.0 0.00 0.00 0.00 97 1013.4
20260508064503 41 0 0.0 0.0 0.00 0.00 0.00 97 1013.3
20260508064003 41 0 0.0 0.0 0.00 0.00 0.00 97 1013.2
20260508063503 40 0 0.0 0.0 0.00 0.00 0.00 97 1013.2
20260508063003 40 0 0.0 0.0 0.00 0.00 0.00 97 1013.1
20260508062503 40 0 0.0 0.0 0.00 0.00 0.00 97 1013.2
20260508062003 40 0 0.0 0.0 0.00 0.00 0.00 96 1013.1
20260508061503 40 0 0.0 0.0 0.00 0.00 0.00 97 1013.1
20260508061003 40 0 0.0 0.0 0.00 0.00 0.00 96 1013.0
20260508060503 40 0 0.0 0.0 0.00 0.00 0.00 96 1013.0
20260508060003 39 0 0.0 0.0 0.00 0.00 0.00 97 1013.0
20260508055504 39 0 0.0 0.0 0.00 0.00 0.00 97 1012.9
20260508055003 39 0 0.0 0.0 0.00 0.00 0.00 96 1012.9
20260508054503 39 0 0.0 0.0 0.00 0.00 0.00 96 1012.9
20260508054003 38 0 0.0 0.0 0.00 0.00 0.00 96 1012.8
20260508053503 38 0 0.0 0.0 0.00 0.00 0.00 96 1012.7
20260508053003 38 0 0.0 0.0 0.00 0.00 0.00 96 1012.7
20260508052503 38 0 0.0 0.0 0.00 0.00 0.00 96 1012.7
20260508052003 38 0 0.0 0.0 0.00 0.00 0.00 96 1012.6
20260508051503 38 0 0.0 0.0 0.00 0.00 0.00 96 1012.5
20260508051003 38 0 0.0 0.0 0.00 0.00 0.00 95 1012.6
20260508050503 38 0 0.0 0.0 0.00 0.00 0.00 95 1012.6
20260508050003 38 0 0.0 0.0 0.00 0.00 0.00 95 1012.6
20260508045503 38 0 0.0 0.0 0.00 0.00 0.00 95 1012.6
20260508045003 38 0 0.0 0.0 0.00 0.00 0.00 95 1012.6
20260508044503 38 0 0.0 0.0 0.00 0.00 0.00 95 1012.7
20260508044003 38 0 0.0 0.0 0.00 0.00 0.00 95 1012.7
20260508043503 39 0 0.0 0.0 0.00 0.00 0.00 95 1012.7
20260508043003 39 0 0.0 0.0 0.00 0.00 0.00 95 1012.6
20260508042503 39 0 0.0 0.0 0.00 0.00 0.00 95 1012.6
20260508042003 39 0 0.0 0.0 0.00 0.00 0.00 95 1012.5
20260508041504 39 0 0.0 0.0 0.00 0.00 0.00 95 1012.6
20260508041003 39 0 0.0 0.0 0.00 0.00 0.00 95 1012.5
20260508040503 39 0 0.0 0.0 0.00 0.00 0.00 95 1012.5
20260508040004 39 0 0.0 0.0 0.00 0.00 0.00 95 1012.5
20260508035503 39 0 0.0 0.0 0.00 0.00 0.00 95 1012.5
20260508035003 39 0 0.0 0.0 0.00 0.00 0.00 95 1012.5
20260508034503 39 0 0.0 0.0 0.00 0.00 0.00 95 1012.5
20260508034003 40 0 0.0 0.0 0.00 0.00 0.00 95 1012.5
20260508033503 40 0 0.0 0.0 0.00 0.00 0.00 95 1012.4
20260508033003 40 0 0.0 0.0 0.00 0.00 0.00 95 1012.4
20260508032503 40 0 0.0 0.0 0.00 0.00 0.00 95 1012.4
20260508032003 40 0 0.0 0.0 0.00 0.00 0.00 94 1012.3
20260508031503 40 0 0.0 0.0 0.00 0.00 0.00 94 1012.3
20260508031003 40 0 0.0 0.0 0.00 0.00 0.00 94 1012.3
20260508030503 40 0 0.0 0.0 0.00 0.00 0.00 94 1012.4
20260508030003 40 0 0.0 0.0 0.00 0.00 0.00 94 1012.4
20260508025504 41 0 0.0 0.0 0.00 0.00 0.00 94 1012.3
20260508025003 41 0 0.0 0.0 0.00 0.00 0.00 94 1012.3
20260508024503 41 0 0.0 0.0 0.00 0.00 0.00 94 1012.2
20260508024003 41 0 0.0 0.0 0.00 0.00 0.00 94 1012.2
20260508023503 41 0 0.0 0.0 0.00 0.00 0.00 94 1012.2
20260508023003 41 0 0.0 0.0 0.00 0.00 0.00 94 1012.2
20260508022503 42 0 0.0 0.0 0.00 0.00 0.00 94 1012.2
20260508022003 42 0 0.0 0.0 0.00 0.00 0.00 94 1012.2
20260508021503 42 0 0.0 0.0 0.00 0.00 0.00 94 1012.2
20260508021003 42 0 0.0 0.0 0.00 0.00 0.00 94 1012.1
20260508020504 42 0 0.0 0.0 0.00 0.00 0.00 94 1012.1
20260508020005 42 0 0.0 0.0 0.00 0.00 0.00 93 1012.2
20260508015503 42 0 0.0 0.0 0.00 0.00 0.00 93 1012.2
20260508015003 43 0 0.0 0.0 0.00 0.00 0.00 93 1012.2
20260508014504 43 0 0.0 0.0 0.00 0.00 0.00 93 1012.2
20260508014003 43 0 0.0 0.0 0.00 0.00 0.00 93 1012.3
20260508013503 43 0 0.0 0.0 0.00 0.00 0.00 93 1012.2
20260508013004 43 0 0.0 0.0 0.00 0.00 0.00 92 1012.2
20260508012503 44 0 0.0 0.0 0.00 0.00 0.00 92 1012.1
20260508012003 44 0 0.0 0.0 0.00 0.00 0.00 92 1012.1
20260508011503 44 0 0.0 0.0 0.00 0.00 0.00 92 1012.1
20260508011003 44 0 0.0 0.0 0.00 0.00 0.00 92 1012.2
20260508010503 44 0 0.0 0.0 0.00 0.00 0.00 91 1012.2
20260508010004 44 0 0.0 0.0 0.00 0.00 0.00 91 1012.2
20260508005503 45 0 0.0 0.0 0.00 0.00 0.00 90 1012.3
20260508005003 45 0 0.0 0.0 0.00 0.00 0.00 90 1012.3
20260508004503 45 0 0.0 0.0 0.00 0.00 0.00 90 1012.3
20260508004003 46 0 0.0 0.0 0.00 0.00 0.00 89 1012.3
20260508003503 46 0 0.0 0.0 0.00 0.00 0.00 90 1012.3
20260508003003 46 0 0.0 0.0 0.00 0.00 0.00 90 1012.3
20260508002503 47 0 0.0 0.0 0.00 0.00 0.00 90 1012.3
20260508002003 47 0 0.0 0.0 0.00 0.00 0.00 89 1012.2
20260508001503 47 0 0.0 0.0 0.00 0.00 0.00 89 1012.2
20260508001003 47 0 0.0 0.0 0.00 0.00 0.00 89 1012.3
20260508000503 47 0 0.0 0.0 0.00 0.00 0.00 89 1012.3
20260508000003 47 0 0.0 0.0 0.00 0.00 0.00 89 1012.3
20260507235503 48 0 0.0 0.0 0.00 0.00 0.00 88 1012.3
20260507235003 48 143 0.0 0.9 0.00 0.00 0.00 88 1012.3
20260507234503 48 150 0.0 0.9 0.00 0.00 0.00 88 1012.4
20260507234003 48 155 0.0 0.9 0.00 0.00 0.00 88 1012.4
20260507233503 48 0 0.0 0.0 0.00 0.00 0.00 88 1012.4
20260507233003 49 0 0.0 0.0 0.00 0.00 0.00 88 1012.2
20260507232503 49 0 0.0 0.0 0.00 0.00 0.00 88 1012.3
20260507232003 49 0 0.0 0.0 0.00 0.00 0.00 88 1012.2
20260507231503 49 151 0.0 0.9 0.00 0.00 0.00 88 1012.3
20260507231003 49 151 0.0 0.9 0.00 0.00 0.00 88 1012.3
20260507230503 49 134 0.0 0.9 0.00 0.00 0.00 88 1012.3
20260507230004 49 145 0.0 0.9 0.00 0.00 0.00 88 1012.3
20260507225503 49 165 0.0 0.9 0.00 0.00 0.00 87 1012.2
20260507225003 49 174 0.0 0.9 0.00 0.00 0.00 87 1012.2
20260507224504 49 174 0.0 0.9 0.00 0.00 0.00 87 1012.2
20260507224004 49 169 0.0 0.9 0.00 0.00 0.00 87 1012.1
20260507223503 49 160 0.0 0.9 0.00 0.00 0.00 87 1012.1
20260507223003 49 0 0.0 0.0 0.00 0.00 0.00 87 1012.2
20260507222503 49 170 0.0 0.9 0.00 0.00 0.00 87 1012.1
20260507222003 49 170 0.0 0.9 0.00 0.00 0.00 86 1012.2
20260507221503 50 0 0.0 0.0 0.00 0.00 0.00 86 1012.1
20260507221003 50 0 0.0 0.0 0.00 0.00 0.00 86 1012.1
20260507220503 50 0 0.0 0.0 0.00 0.00 0.00 86 1012.1
20260507220004 50 0 0.0 0.0 0.00 0.00 0.00 86 1012.1
20260507215503 50 0 0.0 0.0 0.00 0.00 0.00 86 1012.1
20260507215003 50 0 0.0 0.0 0.00 0.00 0.00 85 1012.2
20260507214503 50 0 0.0 0.0 0.00 0.00 0.00 85 1012.1
20260507214003 50 0 0.0 0.0 0.00 0.00 0.00 85 1012.1
20260507213503 50 0 0.0 0.0 0.00 0.00 0.00 85 1012.1
20260507213003 50 0 0.0 0.0 0.00 0.00 0.00 85 1012.1
20260507212503 50 158 0.0 0.9 0.00 0.00 0.00 84 1012.0
20260507212003 50 158 0.0 0.9 0.00 0.00 0.00 84 1012.0
20260507211503 50 0 0.0 0.0 0.00 0.00 0.00 84 1011.9
20260507211003 50 146 0.0 0.9 0.00 0.00 0.00 84 1011.9
20260507210503 50 141 0.0 0.9 0.00 0.00 0.00 84 1011.9
20260507210003 50 133 0.0 0.9 0.00 0.00 0.00 84 1011.9
20260507205503 51 132 0.0 0.9 0.00 0.00 0.00 84 1011.9
20260507205003 51 0 0.0 0.0 0.00 0.00 0.00 83 1011.8
20260507204503 51 0 0.0 0.0 0.00 0.00 0.00 83 1011.7
20260507204003 51 0 0.0 0.0 0.00 0.00 0.00 83 1011.6
20260507203503 51 141 0.0 0.9 0.00 0.00 0.00 82 1011.5
20260507203003 51 152 0.0 0.9 0.00 0.00 0.00 82 1011.4
20260507202503 51 144 0.0 0.9 0.00 0.00 0.00 82 1011.4
20260507202004 52 143 0.0 0.9 0.00 0.00 0.00 81 1011.4
20260507201503 52 147 0.0 0.9 0.00 0.00 0.00 81 1011.3
20260507201004 52 141 0.0 1.7 0.00 0.00 0.00 81 1011.3
20260507200503 52 151 0.0 1.7 0.00 0.00 0.00 80 1011.3
20260507200003 52 152 0.0 1.7 0.00 0.00 0.00 80 1011.3
20260507195503 52 147 0.0 1.7 0.00 0.00 0.00 80 1011.2
20260507195003 52 144 0.0 1.7 0.00 0.00 0.00 80 1011.1
20260507194503 53 145 0.0 1.7 0.00 0.00 0.00 80 1011.1
20260507194003 53 171 0.0 1.7 0.00 0.00 0.00 79 1011.1
20260507193503 53 205 0.0 3.5 0.00 0.00 0.00 79 1011.1
20260507193003 53 199 0.0 3.5 0.00 0.00 0.00 78 1011.1
20260507192503 53 173 0.9 2.6 0.00 0.00 0.00 78 1011.1
20260507192003 54 168 0.9 3.5 0.00 0.00 0.00 77 1011.0
20260507191503 54 166 0.9 3.5 0.00 0.00 0.00 77 1011.0
20260507191003 54 159 0.9 5.2 0.00 0.00 0.00 76 1011.0
20260507190504 54 153 0.9 5.2 0.00 0.00 0.00 76 1011.0
20260507190004 55 157 0.9 4.3 0.00 0.00 0.00 76 1011.0
20260507185503 55 173 0.0 3.5 0.00 0.00 0.00 76 1011.0
20260507185003 55 163 0.9 3.5 0.00 0.00 0.00 76 1011.0
20260507184503 55 159 0.9 3.5 0.00 0.00 0.00 76 1010.9
20260507184003 55 162 0.9 3.5 0.00 0.00 0.00 76 1010.8
20260507183503 55 161 0.9 3.5 0.00 0.00 0.00 76 1010.8
20260507183003 55 169 0.9 3.5 0.00 0.00 0.00 75 1010.8
20260507182503 55 165 0.9 4.3 0.00 0.00 0.00 75 1010.8
20260507182003 55 163 0.9 4.3 0.00 0.00 0.00 75 1010.8
20260507181503 56 168 0.9 3.5 0.00 0.00 0.00 76 1010.7
20260507181003 56 166 0.9 4.3 0.00 0.00 0.00 75 1010.7
20260507180503 56 169 0.9 4.3 0.00 0.00 0.00 75 1010.7
20260507180003 56 173 1.7 4.3 0.00 0.00 0.00 75 1010.6
20260507175503 56 180 1.7 4.3 0.00 0.00 0.00 74 1010.6
20260507175003 56 187 1.7 5.2 0.00 0.00 0.00 74 1010.6
20260507174503 56 172 1.7 5.2 0.00 0.00 0.00 74 1010.6
20260507174003 56 164 1.7 5.2 0.00 0.00 0.00 73 1010.6
20260507173503 56 165 1.7 7.0 0.00 0.00 0.00 73 1010.6
20260507173003 56 167 2.6 7.0 0.00 0.00 0.00 73 1010.6
20260507172503 56 164 2.6 8.7 0.00 0.00 0.00 73 1010.6
20260507172003 56 167 2.6 8.7 0.00 0.00 0.00 72 1010.6
20260507171503 57 173 1.7 6.1 0.00 0.00 0.00 72 1010.6
20260507171003 57 176 1.7 5.2 0.00 0.00 0.00 72 1010.5
20260507170503 57 172 1.7 7.0 0.00 0.00 0.00 71 1010.5
20260507170003 57 169 1.7 7.0 0.00 0.00 0.00 71 1010.5
20260507165503 57 169 1.7 5.2 0.00 0.00 0.00 71 1010.5
20260507165003 57 163 2.6 7.0 0.00 0.00 0.00 71 1010.6
20260507164503 57 163 1.7 7.0 0.00 0.00 0.00 71 1010.5
20260507164003 57 163 1.7 5.2 0.00 0.00 0.00 71 1010.5
20260507163503 57 163 2.6 6.1 0.00 0.00 0.00 70 1010.5
20260507163003 57 168 1.7 6.1 0.00 0.00 0.00 70 1010.6
20260507162503 57 175 1.7 7.0 0.00 0.00 0.00 71 1010.5
20260507162003 57 187 1.7 7.0 0.00 0.00 0.00 70 1010.5
20260507161503 57 196 1.7 3.5 0.00 0.00 0.00 70 1010.5
20260507161003 57 196 1.7 4.3 0.00 0.00 0.00 71 1010.5
20260507160503 57 196 0.9 4.3 0.00 0.00 0.00 70 1010.4
20260507160004 57 190 0.9 4.3 0.00 0.00 0.00 71 1010.4
20260507155503 57 188 0.9 4.3 0.00 0.00 0.00 70 1010.4
20260507155003 58 185 0.9 4.3 0.00 0.00 0.00 71 1010.4
20260507154504 58 192 1.7 5.2 0.00 0.00 0.00 69 1010.3
20260507154003 58 195 1.7 5.2 0.00 0.00 0.00 70 1010.3
20260507153504 58 190 1.7 5.2 0.00 0.00 0.00 68 1010.3
20260507153003 58 184 1.7 4.3 0.00 0.00 0.00 69 1010.3
20260507152503 58 186 1.7 4.3 0.00 0.00 0.00 67 1010.3
20260507152003 58 192 1.7 5.2 0.00 0.00 0.00 66 1010.2
20260507151503 58 195 1.7 5.2 0.00 0.00 0.00 66 1010.2
20260507151003 58 192 0.9 3.5 0.00 0.00 0.00 66 1010.3
20260507150503 58 183 1.7 4.3 0.00 0.00 0.00 65 1010.3
20260507150003 59 184 1.7 4.3 0.00 0.00 0.00 64 1010.2
20260507145503 59 189 0.9 3.5 0.00 0.00 0.00 64 1010.3
20260507145003 60 188 0.9 4.3 0.00 0.00 0.00 64 1010.2
20260507144503 60 192 0.9 4.3 0.00 0.00 0.00 62 1010.2
20260507144003 60 192 0.9 3.5 0.00 0.00 0.00 63 1010.2
20260507143503 60 193 0.9 4.3 0.00 0.00 0.00 62 1010.2
20260507143003 60 192 0.9 4.3 0.00 0.00 0.00 62 1010.2
20260507142503 61 189 0.9 4.3 0.00 0.00 0.00 59 1010.3
20260507142003 61 175 0.9 2.6 0.00 0.00 0.00 59 1010.4
20260507141503 61 162 0.9 4.3 0.00 0.00 0.00 61 1010.4
20260507141003 61 158 1.7 5.2 0.00 0.00 0.00 59 1010.3
20260507140503 60 161 2.6 6.1 0.00 0.00 0.00 62 1010.4
20260507140003 60 161 1.7 6.1 0.00 0.00 0.00 62 1010.4
20260507135503 60 153 1.7 5.2 0.00 0.00 0.00 63 1010.3
20260507135003 60 157 1.7 5.2 0.00 0.00 0.00 61 1010.3
20260507134503 60 158 1.7 5.2 0.00 0.00 0.00 62 1010.4
20260507134003 60 151 0.9 5.2 0.00 0.00 0.00 62 1010.4
20260507133503 60 158 0.9 4.3 0.00 0.00 0.00 64 1010.4
20260507133003 60 176 0.9 4.3 0.00 0.00 0.00 63 1010.4
20260507132503 60 175 0.9 2.6 0.00 0.00 0.00 63 1010.5
20260507132003 60 174 0.9 2.6 0.00 0.00 0.00 65 1010.4
20260507131503 60 186 0.9 3.5 0.00 0.00 0.00 65 1010.5
20260507131003 60 175 1.7 7.0 0.00 0.00 0.00 64 1010.5
20260507130503 60 175 1.7 7.0 0.00 0.00 0.00 63 1010.5
20260507130004 61 176 0.9 3.5 0.00 0.00 0.00 63 1010.6
20260507125503 61 174 1.7 3.5 0.00 0.00 0.00 61 1010.5
20260507125003 62 177 1.7 5.2 0.00 0.00 0.00 63 1010.5
20260507124503 61 179 0.9 5.2 0.00 0.00 0.00 62 1010.6
20260507124003 61 182 1.7 4.3 0.00 0.00 0.00 65 1010.6
20260507123503 60 167 1.7 4.3 0.00 0.00 0.00 66 1010.7